EW4694 Weather Reports


time (UTC)temp
C
wind
direction
speed
KPH
gust
KPH
rain 1hr
cm
rain 24hr
cm
rain mn
cm
humidity
%
barometer
mb
20260508043038 3 293 0.0 0.0 0.00 0.00 0.00 26 1015.8
20260508041529 3 293 0.0 0.0 0.00 0.00 0.00 31 1015.7
20260508040019 3 293 0.0 0.0 0.00 0.00 0.00 34 1015.6
20260508034558 4 293 0.0 0.0 0.00 0.00 0.00 40 1015.5
20260508033050 5 293 0.0 0.0 0.00 0.00 0.00 43 1015.3
20260508031535 5 293 0.0 0.0 0.00 0.00 0.00 48 1015.2
20260508030031 5 293 0.0 0.0 0.00 0.00 0.00 53 1015.1
20260508024503 6 293 0.0 0.0 0.00 0.00 0.00 56 1014.9
20260508023058 6 293 0.0 0.0 0.00 0.00 0.00 60 1014.8
20260508021539 7 293 0.0 0.0 0.00 0.00 0.00 65 1014.5
20260508020041 7 293 0.0 0.0 0.00 0.00 0.00 66 1014.3
20260508014511 8 293 0.0 0.0 0.00 0.00 0.00 68 1014.1
20260508013007 10 293 0.0 0.0 0.00 0.00 0.00 65 1013.8
20260508011554 11 293 0.0 0.0 0.00 0.00 0.00 57 1013.6
20260508010041 12 293 0.0 0.0 0.00 0.00 0.00 47 1013.3
20260508004519 12 303 0.0 0.0 0.00 0.03 0.00 46 1013.3
20260508003015 13 321 0.0 0.0 0.00 0.03 0.00 48 1013.0
20260508001554 13 304 0.0 0.0 0.00 0.03 0.00 46 1012.7
20260508000049 14 304 0.0 0.0 0.00 0.03 0.00 44 1012.4
20260507234527 14 310 0.0 0.0 0.00 0.03 0.00 42 1012.3
20260507233041 15 305 0.0 1.6 0.00 0.03 0.00 41 1012.1
20260507231502 15 298 0.0 1.6 0.00 0.03 0.00 40 1011.9
20260507230059 15 330 0.0 0.0 0.00 0.03 0.00 43 1011.9
20260507224539 15 315 0.0 0.0 0.00 0.03 0.00 43 1011.9
20260507223032 16 293 0.0 14.5 0.00 0.03 0.00 41 1011.7
20260507221521 16 281 0.0 12.9 0.00 0.03 0.00 42 1011.7
20260507220011 16 296 0.0 1.6 0.00 0.03 0.00 43 1011.5
20260507214507 16 255 0.0 1.6 0.00 0.08 0.00 40 1011.3
20260507213007 17 264 0.0 0.0 0.00 0.08 0.00 43 1011.2
20260507211559 16 298 0.0 0.0 0.00 0.08 0.00 46 1011.1
20260507210058 16 301 0.0 0.0 0.00 0.08 0.00 43 1011.1
20260507204549 16 269 0.0 0.0 0.00 0.08 0.00 48 1011.1
20260507203047 16 305 0.0 0.0 0.00 0.08 0.00 47 1011.1
20260507201523 16 271 0.0 0.0 0.00 0.08 0.00 45 1011.2
20260507200018 16 288 0.0 0.0 0.00 0.08 0.00 45 1011.2
20260507194619 17 333 0.0 0.0 0.00 0.08 0.00 44 1011.5
20260507193055 16 311 0.0 1.6 0.00 0.08 0.00 47 1011.8
20260507191534 15 281 0.0 0.0 0.00 0.08 0.00 49 1011.8
20260507190025 15 329 0.0 0.0 0.00 0.08 0.00 50 1011.8
20260507184505 16 304 0.0 0.0 0.00 0.08 0.00 48 1011.9
20260507183001 16 287 0.0 0.0 0.00 0.08 0.00 50 1011.9
20260507181538 16 301 0.0 0.0 0.00 0.08 0.00 54 1012.0
20260507180037 15 274 0.0 0.0 0.00 0.08 0.00 52 1012.1
20260507174516 16 327 0.0 1.6 0.00 0.08 0.00 50 1012.2
20260507173008 15 296 0.0 0.0 0.00 0.08 0.00 55 1012.4
20260507171554 15 274 0.0 1.6 0.00 0.08 0.00 57 1012.6
20260507170044 15 360 0.0 0.0 0.00 0.08 0.00 52 1012.9
20260507164528 15 355 0.0 0.0 0.00 0.10 0.00 51 1013.0
20260507163018 15 288 0.0 0.0 0.00 0.10 0.00 54 1013.0
20260507161604 14 292 0.0 0.0 0.00 0.10 0.00 54 1013.2
20260507160051 14 308 0.0 0.0 0.00 0.10 0.00 54 1013.4
20260507154529 14 296 0.0 0.0 0.00 0.13 0.00 57 1013.6
20260507153028 13 279 0.0 0.0 0.00 0.13 0.00 58 1013.5
20260507151505 13 319 0.0 0.0 0.00 0.13 0.00 56 1013.6
20260507150103 13 323 0.0 0.0 0.00 0.13 0.00 55 1013.7
20260507144539 12 278 0.0 0.0 0.00 0.13 0.00 56 1014.0
20260507143033 12 344 0.0 0.0 0.00 0.13 0.00 60 1014.2
20260507141512 13 313 0.0 0.0 0.00 0.13 0.00 64 1014.6
20260507140007 12 275 0.0 0.0 0.00 0.13 0.00 63 1014.7
20260507134546 12 313 0.0 0.0 0.00 0.15 0.00 67 1014.8
20260507133041 12 64 0.0 0.0 0.00 0.15 0.00 60 1015.0
20260507131527 11 187 0.0 0.0 0.00 0.15 0.00 39 1015.1
20260507130016 10 187 0.0 0.0 0.00 0.15 0.00 13 1015.2
20260507124614 8 187 0.0 0.0 0.00 0.15 0.00 1 1015.2
20260507123050 8 188 0.0 0.0 0.00 0.15 0.00 1 1015.3
20260507121545 8 153 0.0 0.0 0.00 0.15 0.00 1 1015.1
20260507120038 8 164 0.0 0.0 0.00 0.15 0.00 1 1015.1
20260507114519 8 171 0.0 0.0 0.00 0.18 0.00 1 1014.8
20260507113059 8 156 0.0 0.0 0.00 0.18 0.00 1 1014.6
20260507111556 8 156 0.0 0.0 0.00 0.18 0.00 1 1014.4
20260507110036 -17 0.0 0.0 0.00 0.18 0.00 1014.3
20260507104528 -17 0.0 0.0 0.00 0.18 0.00 1014.1
20260507103008 -17 0.0 0.0 0.00 0.18 0.00 1014.0
20260507101507 -17 0.0 0.0 0.00 0.18 0.00 1013.8
20260507100043 -17 0.0 0.0 0.00 0.18 0.00 1013.8
20260507094537 -17 0.0 0.0 0.00 0.20 0.00 1013.9
20260507093015 -17 0.0 0.0 0.00 0.20 0.00 1013.9
20260507091511 -17 0.0 0.0 0.00 0.20 0.00 1013.7
20260507090054 -17 0.0 0.0 0.00 0.20 0.00 1013.7
20260507084545 -17 0.0 0.0 0.00 0.25 0.00 1013.7
20260507083024 9 184 0.0 0.0 0.00 0.25 0.00 1 1013.7
20260507081523 9 184 0.0 0.0 0.00 0.25 0.00 1 1013.8
20260507080005 9 184 0.0 0.0 0.00 0.25 0.00 1 1013.8
20260507074606 9 184 0.0 0.0 0.00 0.25 0.00 1 1013.9
20260507073133 10 184 0.0 0.0 0.00 0.25 0.00 1 1013.9
20260507071551 10 184 0.0 0.0 0.00 0.25 0.00 1 1013.7
20260507070047 10 184 0.0 0.0 0.00 0.25 0.00 1 1013.7
20260507064603 10 184 0.0 0.0 0.00 0.25 0.00 1 1013.6
20260507063047 10 184 0.0 0.0 0.00 0.25 0.00 1 1013.6
20260507061538 10 184 0.0 0.0 0.00 0.25 0.00 1 1013.7
20260507060012 10 184 0.0 0.0 0.00 0.25 0.00 1 1013.9
20260507054508 10 184 0.0 0.0 0.00 0.25 0.00 1 1013.9
20260507053047 10 184 0.0 0.0 0.00 0.25 0.00 1 1013.9
20260507051543 10 184 0.0 0.0 0.00 0.25 0.00 1 1014.1
20260507050021 10 184 0.0 0.0 0.00 0.25 0.00 1 1014.3
20260507044517 10 184 0.0 0.0 0.00 0.25 0.00 1 1014.2